TimeMST,TemperatureF,Dew PointF,Humidity,Sea Level PressureIn,VisibilityMPH,Wind Direction,Wind SpeedMPH,Gust SpeedMPH,PrecipitationIn,Events,Conditions,WindDirDegrees,DateUTC
12:51 AM,28.0,24.1,85,29.95,10.0,ESE,6.9,-,0.00,,Overcast,120,2013-03-07 07:51:00
1:51 AM,28.0,23.0,81,29.99,10.0,SSE,5.8,-,N/A,,Overcast,150,2013-03-07 08:51:00
2:51 AM,27.0,21.0,78,30.00,10.0,Calm,Calm,-,N/A,,Overcast,0,2013-03-07 09:51:00
3:51 AM,23.0,19.9,88,30.01,10.0,Calm,Calm,-,N/A,,Mostly Cloudy,0,2013-03-07 10:51:00
4:51 AM,23.0,19.9,88,30.03,10.0,WSW,3.5,-,N/A,,Overcast,240,2013-03-07 11:51:00
5:32 AM,19.4,19.4,100,29.93,6.0,Calm,Calm,-,N/A,,Overcast,0,2013-03-07 12:32:00
5:51 AM,19.9,19.0,96,30.04,10.0,Calm,Calm,-,N/A,,Overcast,0,2013-03-07 12:51:00
6:04 AM,19.4,19.4,100,29.94,8.0,Calm,Calm,-,N/A,,Mostly Cloudy,0,2013-03-07 13:04:00
6:51 AM,19.9,18.0,92,30.05,10.0,Calm,Calm,-,N/A,,Partly Cloudy,0,2013-03-07 13:51:00
7:06 AM,19.4,17.6,93,29.94,1.8,Calm,Calm,-,N/A,,Partly Cloudy,0,2013-03-07 14:06:00
7:08 AM,17.6,17.6,100,29.94,0.8,NW,3.5,-,N/A,,Scattered Clouds,320,2013-03-07 14:08:00
7:30 AM,17.6,15.8,93,29.95,0.5,Calm,Calm,-,N/A,Fog,Light Freezing Fog,0,2013-03-07 14:30:00
7:33 AM,17.6,15.8,93,29.95,1.2,Calm,Calm,-,N/A,,Scattered Clouds,0,2013-03-07 14:33:00
7:39 AM,17.6,15.8,93,29.95,4.0,Calm,Calm,-,N/A,,Partly Cloudy,0,2013-03-07 14:39:00
7:51 AM,17.1,16.0,96,30.07,0.5,Calm,Calm,-,N/A,Fog,Light Freezing Fog,0,2013-03-07 14:51:00
8:51 AM,23.0,17.1,78,30.07,0.2,Calm,Calm,-,N/A,,Haze,0,2013-03-07 15:51:00
9:34 AM,28.4,21.2,74,29.98,1.5,Calm,Calm,-,N/A,,Haze,0,2013-03-07 16:34:00
9:36 AM,28.4,21.2,74,29.98,4.0,Calm,Calm,-,N/A,,Haze,0,2013-03-07 16:36:00
9:51 AM,27.0,21.0,78,30.08,8.0,Calm,Calm,-,N/A,,Clear,0,2013-03-07 16:51:00
10:51 AM,26.1,21.0,81,30.08,10.0,Calm,Calm,-,N/A,,Clear,0,2013-03-07 17:51:00
11:51 AM,33.1,21.9,64,30.08,10.0,Calm,Calm,-,N/A,,Clear,0,2013-03-07 18:51:00
12:51 PM,32.0,19.9,61,30.07,10.0,SE,5.8,-,0.01,,Clear,140,2013-03-07 19:51:00
1:51 PM,34.0,16.0,48,30.03,10.0,Calm,Calm,-,N/A,,Clear,0,2013-03-07 20:51:00
2:51 PM,37.0,14.0,39,29.99,10.0,Calm,Calm,-,N/A,,Clear,0,2013-03-07 21:51:00
3:51 PM,34.0,10.9,38,30.01,10.0,Calm,Calm,-,N/A,,Clear,0,2013-03-07 22:51:00
4:51 PM,35.1,14.0,42,30.00,10.0,South,3.5,-,N/A,,Clear,180,2013-03-07 23:51:00
5:51 PM,34.0,15.1,46,30.01,10.0,NW,3.5,-,N/A,,Clear,320,2013-03-08 00:51:00
6:51 PM,28.9,21.0,72,30.03,10.0,NE,3.5,-,N/A,,Clear,50,2013-03-08 01:51:00
7:51 PM,25.0,19.0,78,30.06,10.0,North,3.5,-,N/A,,Clear,10,2013-03-08 02:51:00
8:51 PM,25.0,19.9,81,30.04,10.0,Calm,Calm,-,N/A,,Clear,0,2013-03-08 03:51:00
9:51 PM,21.0,17.1,85,30.04,10.0,NNW,3.5,-,N/A,,Clear,330,2013-03-08 04:51:00
10:51 PM,18.0,16.0,92,30.04,10.0,Calm,Calm,-,N/A,,Clear,0,2013-03-08 05:51:00
11:51 PM,17.1,14.0,88,30.01,10.0,North,3.5,-,N/A,,Clear,350,2013-03-08 06:51:00